Content
SEND FEEDBACK

Daily
Averages
Monthly
Summary
United States of America

CHICAGO, ILLINOIS


Home > North America > United States > Illinois
Elevation: 205 meters     Latitude: 41 59N     Longitude: 087 54W

WEATHER
 
SELECT A DAY
Number of Records: 194,730;   Date Range: 7/8/95 - 7/7/14
 
SHARE

PRINT THIS DATA

[ ← Previous Day ]
WEATHER ALMANAC - 26 JUNE, 2013
[ Next Day → ]
[ °F ]   °C
We're sorry. There is no daily almanac available for Chicago, Illinois on 26 June, 2013.
WEATHER BY HOUR - 26 JUNE, 2013
[ °F ]   °C
Local TimeTemperatureDewpointHumidityBarometerVisibilityWind DirectionWind SpeedGust SpeedPrecipitationEventsConditions
1:52 AM22.2 °C18.3 °C78 %1009.1 hPa16.1 kmSouth (180°)7.4 km/hPartly Cloudy
2:52 AM21.7 °C18.3 °C81 %1008.8 hPa16.1 kmSE (130°)5.6 km/hMostly Cloudy
3:40 AM22 °C18 °C78 %1008.8 hPa16.1 kmSSE (150°)9.3 km/hThunderstormThunderstorm
3:52 AM21.7 °C18.9 °C84 %1008.5 hPa16.1 kmSouth (180°)7.4 km/hThunderstormThunderstorm
4:06 AM22 °C19 °C83 %1009.1 hPa2.9 kmSW (220°)14.8 km/h25.9 km/h4.83 mmRain-ThunderstormHeavy Thunderstorms and Rain
4:12 AM22 °C19 °C83 %1009.8 hPa1.3 kmWSW (250°)5.6 km/h11.18 mmRain-ThunderstormHeavy Thunderstorms and Rain
4:25 AM21 °C19 °C88 %1010.8 hPa1.3 kmNNE (20°)16.7 km/h26.16 mmRain-ThunderstormHeavy Thunderstorms and Rain
4:42 AM20 °C19 °C94 %1010.2 hPa1.6 kmENE (60°)11.1 km/h43.69 mmRain-ThunderstormHeavy Thunderstorms and Rain
4:49 AM20 °C18 °C88 %1010.2 hPa1.6 kmNorth (10°)5.6 km/h49.28 mmRain-ThunderstormHeavy Thunderstorms and Rain
4:52 AM20 °C18.3 °C90 %1009.8 hPa1.6 kmNorth (360°)14.8 km/h50.55 mmRain-ThunderstormHeavy Thunderstorms and Rain
5:02 AM20 °C18 °C88 %1009.5 hPa1.9 kmNorth (360°)13 km/h33.3 km/h6.35 mmRain-ThunderstormHeavy Thunderstorms and Rain
5:20 AM20 °C18 °C88 %1010.2 hPa1.3 kmNW (320°)22.2 km/h37 km/h17.27 mmRain-ThunderstormHeavy Thunderstorms and Rain
5:26 AM20 °C18 °C88 %1009.5 hPa1.9 kmNorth (350°)18.5 km/h35.2 km/h19.56 mmRain-ThunderstormHeavy Thunderstorms and Rain
5:31 AM19 °C18 °C94 %1009.1 hPa3.2 kmNorth (10°)16.7 km/h31.5 km/h20.57 mmRain-ThunderstormHeavy Thunderstorms and Rain
5:52 AM20 °C17.8 °C87 %1009.5 hPa8 kmCalm23.11 mmRain-ThunderstormLight Thunderstorms and Rain
6:03 AM20 °C18 °C88 %1011.2 hPa2.9 kmWNW (290°)16.7 km/h3.81 mmRain-ThunderstormHeavy Thunderstorms and Rain
6:07 AM19 °C18 °C94 %1011.5 hPa1.3 kmWest (270°)11.1 km/h6.86 mmRain-ThunderstormHeavy Thunderstorms and Rain
6:52 AM19.4 °C18.3 °C93 %1010.8 hPa1.3 kmSSE (150°)16.7 km/h33.02 mmRain-ThunderstormHeavy Thunderstorms and Rain
7:02 AM19 °C18 °C94 %1010.8 hPa3.2 kmSSE (160°)11.1 km/h2.79 mmRain-ThunderstormHeavy Thunderstorms and Rain
7:11 AM19 °C18 °C94 %1010.8 hPa6.4 kmSSE (150°)11.1 km/h3.56 mmRain-ThunderstormThunderstorms and Rain
7:44 AM19 °C18 °C94 %1010.5 hPa16.1 kmSSE (160°)14.8 km/h5.08 mmRainLight Rain
7:52 AM19.4 °C18.3 °C93 %1010.2 hPa16.1 kmSSE (160°)14.8 km/h5.08 mmRainLight Rain
8:52 AM20.6 °C18.9 °C90 %1009.8 hPa16.1 kmSE (130°)11.1 km/h0 mmMostly Cloudy
9:08 AM21 °C19 °C88 %1010.2 hPa2.9 kmSE (130°)16.7 km/h2.03 mmRainHeavy Rain
9:16 AM21 °C18 °C83 %1009.8 hPa4.8 kmSE (140°)16.7 km/h2.29 mmRainLight Rain
9:52 AM20.6 °C18.3 °C87 %1009.1 hPa16.1 kmSE (140°)11.1 km/h3.3 mmMostly Cloudy
10:52 AM21.7 °C18.3 °C81 %1008.1 hPa16.1 kmSSE (160°)18.5 km/hMostly Cloudy
11:52 AM23.3 °C18.9 °C76 %1008.5 hPa16.1 kmSSW (200°)13 km/hMostly Cloudy
12:52 PM23.9 °C18.9 °C73 %1007.8 hPa16.1 kmSouth (190°)16.7 km/hScattered Clouds
1:52 PM24.4 °C18.9 °C71 %1007.1 hPa16.1 kmSouth (180°)11.1 km/hScattered Clouds
2:06 PM24 °C19 °C73 %1007.5 hPa16.1 kmSouth (180°)11.1 km/hMostly Cloudy
2:17 PM25 °C19 °C69 %1007.5 hPa16.1 kmVariable7.4 km/hScattered Clouds
2:24 PM25 °C19 °C69 %1007.8 hPa16.1 kmWest (260°)11.1 km/hMostly Cloudy
2:52 PM25 °C19.4 °C71 %1007.8 hPa16.1 kmWSW (250°)7.4 km/h0 mmRainLight Rain
3:12 PM26 °C19 °C65 %1008.1 hPa16.1 kmSW (230°)13 km/h0 mmMostly Cloudy
3:52 PM25.6 °C18.9 °C66 %1007.5 hPa16.1 kmSW (220°)9.3 km/h0 mmMostly Cloudy
4:52 PM25.6 °C19.4 °C68 %1006.8 hPa16.1 kmCalmOvercast
5:27 PM25 °C20 °C74 %1007.5 hPa16.1 kmNE (50°)9.3 km/hOvercast
5:52 PM23.3 °C19.4 °C79 %1007.5 hPa16.1 kmNNE (30°)13 km/hOvercast
6:15 PM23 °C19 °C78 %1007.5 hPa16.1 kmNE (40°)11.1 km/hMostly Cloudy
6:27 PM23 °C19 °C78 %1007.5 hPa16.1 kmNNE (20°)9.3 km/hOvercast
6:52 PM22.8 °C18.9 °C79 %1006.8 hPa16.1 kmNE (40°)7.4 km/hOvercast
7:10 PM23 °C19 °C78 %1007.1 hPa16.1 kmNE (50°)9.3 km/hPartly Cloudy
7:37 PM23 °C19 °C78 %1007.5 hPa16.1 kmCalmMostly Cloudy
7:52 PM23.3 °C18.9 °C76 %1007.5 hPa16.1 kmNorth (350°)5.6 km/hOvercast
8:31 PM23 °C19 °C78 %1007.8 hPa16.1 kmNNE (30°)5.6 km/hOvercast
8:52 PM22.2 °C18.9 °C81 %1007.5 hPa16.1 kmNorth (360°)5.6 km/hScattered Clouds
9:25 PM22 °C19 °C83 %1008.1 hPa16.1 kmNNE (20°)5.6 km/hMostly Cloudy
9:39 PM22 °C19 °C83 %1007.8 hPa16.1 kmNNE (20°)5.6 km/hScattered Clouds
9:52 PM21.7 °C18.9 °C84 %1007.8 hPa16.1 kmNNW (340°)5.6 km/hClear
10:52 PM20.6 °C18.9 °C90 %1008.1 hPa14.5 kmNE (50°)9.3 km/hClear
11:52 PM19.4 °C17.8 °C90 %1008.5 hPa12.9 kmNW (320°)5.6 km/hClear
Hourly data recorded from KPWK, located 0 kilometers away from Chicago, Illinois







STORIES FROM OUR PARTNERS